Theta_e
312 311 311 311 310 310 310 310 309 308 307 307 306 307 301 301 299 309 311 312 308 301 296 300 299 297 300 304 303 306 305 304 305 304 306 304 305 303 303 302 302 304 304 305 305 307 305 308 306 308 309 311 313 315 316 316 315 315 312 313 314 322 308 306 306 310 311 312 313 314 313 312 309 310 310 308 306 309 309 308 310 306 308 305 305 303 306
311 311 311 310 310 311 310 310 310 309 308 308 307 303 300 301 300 303 310 312 309 299 291 293 296 298 301 301 301 304 303 304 303 303 304 303 302 302 302 303 304 303 305 304 302 306 302 307 307 307 310 308 314 314 315 316 313 313 313 310 314 307 309 307 303 302 304 307 310 309 312 311 307 307 309 310 310 310 312 312 313 307 307 308 304 300 306
311 310 310 310 310 311 310 310 309 309 309 310 307 299 300 300 303 303 305 309 306 297 298 296 296 298 299 300 299 300 301 303 304 304 303 306 304 303 301 303 304 303 304 303 304 306 304 304 308 308 308 309 313 313 314 315 314 316 321 336 317 309 309 306 300 297 295 295 296 298 302 305 307 308 308 310 309 308 307 305 308 302 309 311 305 305 312
310 310 310 310 310 310 310 309 309 309 309 309 308 302 299 297 292 299 302 305 304 302 303 300 298 297 298 297 300 301 299 303 305 304 303 305 305 305 304 305 305 303 303 301 302 302 306 304 304 306 305 308 310 313 313 313 314 323 325 322 319 311 312 310 307 305 302 305 309 311 310 307 304 305 306 307 309 310 309 309 305 302 306 307 308 311 311
310 311 310 310 310 310 309 308 308 309 309 309 306 302 299 299 293 296 293 300 300 299 302 300 298 295 298 292 298 297 299 301 302 307 302 305 304 303 304 303 302 301 301 300 300 302 302 305 305 305 305 307 309 311 311 312 316 324 321 317 315 313 308 310 311 310 310 310 310 311 310 307 307 306 306 307 307 308 308 305 303 311 305 301 309 316 310
310 311 310 310 310 310 308 308 308 308 309 308 308 299 300 292 296 298 300 293 291 293 295 297 294 295 296 292 296 294 294 296 295 300 304 305 306 300 302 303 304 303 302 302 299 301 301 303 301 305 305 306 308 307 310 310 320 316 314 317 313 310 306 310 310 309 310 311 311 312 310 310 309 308 307 306 307 307 306 307 309 311 305 303 312 317 312
310 310 310 310 309 309 309 308 308 308 307 308 306 296 300 298 298 297 300 293 295 295 296 296 293 292 293 292 293 292 293 294 297 297 298 299 300 302 297 299 302 303 304 304 300 302 298 298 304 304 303 304 307 305 307 310 314 313 313 315 317 312 308 310 311 309 310 310 310 311 310 309 309 309 308 308 308 307 307 307 309 309 311 311 312 316 313
310 310 310 309 309 309 309 308 308 308 306 308 303 300 297 295 296 294 299 298 296 297 297 295 293 289 292 288 290 292 293 293 296 298 296 294 296 302 299 300 301 301 302 303 301 303 304 304 301 305 305 304 306 306 308 309 312 313 311 313 316 311 307 312 310 308 308 310 311 311 310 309 307 309 310 310 310 309 308 307 308 309 309 310 311 313 312
309 310 310 309 308 308 308 308 307 306 306 305 302 299 303 301 303 301 294 291 294 295 296 294 293 291 292 290 291 292 292 292 294 294 299 296 295 298 296 298 299 301 302 304 302 306 307 307 307 308 306 302 308 306 308 311 308 310 309 311 312 311 309 313 310 305 305 309 310 310 310 309 308 307 308 309 308 307 308 307 308 307 307 309 308 308 308
310 310 309 309 309 308 308 308 307 306 304 303 303 297 304 302 304 303 299 291 296 292 295 295 293 290 294 294 294 293 294 296 297 294 298 299 298 298 298 298 297 297 301 303 303 305 304 305 307 310 311 312 310 310 310 311 308 308 308 312 309 311 310 307 307 303 305 309 310 309 309 307 303 305 307 309 310 310 311 312 312 311 310 306 305 306 312
309 309 309 309 309 308 308 308 308 307 307 301 300 299 301 299 298 300 298 290 292 293 293 292 292 295 296 295 294 296 295 296 297 292 293 298 298 300 300 298 295 295 298 302 306 307 307 308 310 313 313 313 312 312 313 314 314 313 311 309 309 311 310 308 312 304 305 308 309 310 306 298 299 310 313 312 309 309 308 309 311 313 313 310 311 311 315
310 309 309 309 309 309 309 308 308 307 306 309 306 301 303 303 301 299 294 288 290 295 293 291 293 294 295 296 296 294 294 295 295 298 294 296 299 300 299 298 298 293 302 306 306 307 310 312 312 313 311 310 310 310 310 310 311 315 315 313 310 309 309 308 311 306 305 310 310 304 299 300 313 315 316 315 314 313 311 311 312 313 314 314 313 314 315
308 309 309 308 309 309 308 308 308 307 307 309 308 302 306 306 302 296 295 291 289 292 290 292 296 296 296 296 295 296 296 297 298 298 298 297 297 299 299 298 298 299 305 304 304 305 303 302 304 305 306 308 308 308 307 307 309 312 313 315 312 310 309 310 309 309 310 307 305 296 298 312 313 314 315 317 315 314 312 309 313 314 313 314 313 314 315
309 309 309 309 309 309 308 308 307 308 307 307 306 306 307 305 301 297 293 290 290 293 295 294 295 294 295 294 295 295 296 296 297 299 296 298 296 297 299 300 301 305 305 306 303 302 298 300 297 300 300 303 303 301 304 307 307 308 310 312 313 313 313 311 306 311 303 304 304 303 311 309 311 311 313 314 312 311 310 307 314 317 317 315 314 315 316
308 308 308 308 308 309 309 308 308 308 308 307 308 304 306 307 305 299 299 296 289 293 296 288 292 294 294 294 294 293 295 295 294 295 298 300 298 299 300 302 304 305 306 302 299 300 297 297 295 294 297 296 292 295 303 301 306 308 310 311 313 314 309 313 308 305 308 304 302 303 302 299 305 314 319 319 319 320 320 316 311 318 318 319 316 314 315
308 308 308 308 308 308 309 309 308 307 308 307 307 307 307 308 307 305 300 296 293 286 292 297 297 295 294 294 295 295 293 293 295 295 294 297 298 301 303 305 306 306 303 301 300 298 297 294 293 294 293 295 299 298 297 301 301 307 309 311 311 312 313 313 308 305 306 305 301 301 300 303 314 317 317 320 321 320 321 313 305 314 317 318 317 315 316
308 308 309 308 308 309 309 308 307 307 308 307 306 305 303 310 307 303 299 298 295 289 297 298 298 295 293 294 296 296 298 295 297 292 292 294 295 298 300 304 306 304 301 298 297 297 295 295 297 297 298 301 298 296 300 300 299 301 306 308 308 308 308 309 306 305 305 305 302 301 307 306 314 318 317 319 321 320 316 301 302 316 320 320 319 316 317
307 307 308 308 308 308 307 308 308 308 307 308 306 304 305 310 310 304 299 296 292 292 296 299 297 295 292 295 293 297 299 297 297 298 295 297 297 297 299 301 299 301 302 294 296 294 294 296 294 295 294 301 303 303 294 301 298 300 301 303 303 304 305 306 302 304 304 302 304 306 308 315 318 319 318 319 321 317 306 299 310 325 329 329 328 329 330
308 307 308 308 309 308 308 308 308 308 308 307 308 307 306 309 310 308 302 298 295 289 298 301 303 299 300 301 299 298 299 297 297 293 294 293 296 301 301 301 302 294 298 294 296 295 295 296 300 299 296 298 301 296 302 299 300 304 305 302 302 303 304 305 306 303 302 303 302 302 307 316 320 321 319 321 314 305 304 320 327 327 326 329 328 325 329
308 308 308 308 308 307 308 308 308 308 308 307 307 303 304 308 310 308 301 295 297 295 297 298 301 298 301 299 296 295 296 297 298 296 295 290 301 300 298 294 300 300 300 302 295 300 297 294 297 302 298 298 300 305 303 302 306 304 304 307 303 303 301 301 302 306 306 304 301 298 295 317 320 320 317 322 311 314 322 326 328 327 328 329 331 330 329
307 308 308 307 307 307 307 308 308 308 308 308 307 305 303 309 310 310 308 302 296 293 295 302 302 302 302 300 301 300 299 295 297 295 298 297 301 297 289 291 294 297 294 298 293 296 299 297 297 299 303 301 303 306 301 303 304 309 309 307 305 311 303 303 305 308 300 300 298 298 309 318 321 318 312 321 323 325 328 326 324 328 329 331 331 332 332
307 307 307 307 307 307 307 307 307 307 308 308 307 306 302 305 310 308 307 306 299 296 297 302 304 303 304 304 304 305 303 302 302 302 297 295 300 297 297 298 298 300 301 302 298 300 300 299 303 300 298 301 308 301 305 300 298 307 313 313 303 312 308 310 303 311 306 304 306 319 321 321 324 324 322 324 327 328 327 327 327 328 330 333 334 333 332
307 307 307 307 307 307 307 307 307 307 307 307 307 307 303 305 306 310 309 299 302 301 303 304 306 306 307 306 308 308 307 307 305 303 303 298 296 299 298 298 298 304 305 304 299 298 298 297 296 300 300 304 303 302 304 303 301 308 306 315 313 315 315 319 313 308 320 321 321 321 322 321 322 323 325 324 325 326 327 327 328 330 332 333 331 336 335
307 307 307 307 307 307 307 307 307 307 307 307 307 307 304 305 304 304 303 302 297 295 300 303 300 297 299 300 305 308 307 307 306 306 307 304 295 296 300 302 303 301 302 305 305 299 299 299 299 302 297 303 305 303 299 300 303 310 309 307 313 314 315 313 308 317 310 305 322 321 320 321 321 321 324 325 326 327 330 330 331 330 330 332 333 330 332
308 307 307 307 307 306 307 307 307 307 307 307 307 309 308 305 307 306 300 293 295 293 289 295 298 301 304 306 307 305 306 307 309 308 306 304 301 297 297 303 304 301 302 306 308 303 302 296 298 298 295 302 306 298 310 306 304 313 303 307 309 313 319 315 309 315 310 311 319 320 322 323 324 323 322 322 324 325 328 328 329 333 332 330 330 331 331
307 307 307 307 308 307 307 307 307 308 307 307 307 307 304 303 310 311 307 301 299 297 291 290 296 304 306 304 302 304 307 306 306 305 306 305 305 304 302 303 303 306 306 307 307 301 299 298 299 298 295 298 308 301 302 307 306 312 310 307 311 311 314 309 312 310 316 319 319 318 319 319 320 320 322 323 324 324 323 326 326 325 324 324 324 326 328
306 307 306 306 307 306 307 307 307 307 307 306 307 308 307 306 310 308 303 301 296 292 294 291 297 301 303 300 304 306 306 306 306 305 305 306 306 306 305 304 302 304 303 303 305 304 301 298 298 295 299 300 304 301 303 303 307 308 306 308 310 312 309 313 312 310 309 310 313 316 311 310 315 316 319 321 322 322 322 323 323 323 322 323 321 322 324
306 307 306 307 307 307 307 307 307 307 307 307 308 307 307 306 308 308 307 304 299 291 293 293 294 298 303 299 303 305 305 306 305 305 304 305 306 306 305 304 305 302 303 301 298 299 298 296 296 303 303 304 302 301 308 311 312 309 304 305 309 308 308 310 310 308 309 316 318 322 319 317 317 318 319 320 321 319 318 318 319 321 321 322 321 321 323
306 306 306 306 307 307 307 307 307 307 307 307 309 306 304 307 310 309 309 307 306 299 297 296 299 298 293 300 307 307 309 309 306 304 304 304 305 306 305 306 305 304 303 302 302 300 298 298 302 299 299 305 300 299 304 300 304 301 302 307 311 312 315 314 316 317 319 320 320 319 318 314 316 317 319 320 320 318 316 317 318 319 319 321 322 321 320
307 306 307 307 306 307 307 307 307 306 307 308 306 302 299 301 308 309 309 309 308 301 295 292 290 296 303 303 303 306 306 308 307 306 304 303 303 304 305 305 305 306 305 302 301 297 300 299 301 303 304 307 301 303 301 306 302 301 307 310 313 314 315 316 317 317 316 321 322 321 318 318 319 319 318 318 318 317 315 315 315 317 318 319 318 318 319
307 307 307 307 306 307 307 307 307 307 306 307 305 297 295 292 301 308 309 309 310 303 299 295 292 298 298 305 307 306 307 308 307 306 306 305 304 303 305 305 306 307 303 302 302 302 301 298 300 302 308 308 306 303 301 302 302 302 306 309 310 311 313 316 320 324 321 320 320 320 318 316 318 317 316 316 316 317 316 316 317 319 318 319 318 319 317
307 307 307 307 307 306 307 306 307 307 308 306 300 298 299 300 304 307 306 308 308 302 295 290 291 294 295 300 306 309 308 309 307 307 307 307 304 304 304 305 305 308 306 302 302 301 300 302 299 301 301 308 309 305 305 304 300 301 308 309 310 311 314 315 317 320 320 320 319 317 315 315 318 315 313 317 316 315 315 316 317 317 319 320 319 319 320
307 307 307 307 307 306 307 307 307 307 307 308 307 306 305 305 306 307 309 306 303 299 299 294 289 294 293 296 304 306 310 307 306 307 305 307 305 306 304 306 307 306 308 303 299 297 304 303 306 300 305 311 306 304 304 301 301 307 309 309 309 310 311 313 314 315 318 319 320 315 312 312 313 315 317 317 317 315 315 316 318 317 316 316 316 318 322
307 307 307 307 307 307 307 307 307 306 306 305 303 304 307 306 306 305 306 305 300 300 299 293 290 291 290 302 297 303 308 303 302 303 300 305 308 306 304 304 304 300 303 300 303 303 306 305 300 301 308 307 309 303 298 301 306 306 308 309 310 310 311 310 310 311 314 315 316 316 315 314 315 316 317 317 317 319 320 317 316 316 314 316 316 316 318
308 308 308 308 308 308 307 307 307 305 303 302 302 308 307 306 308 308 305 303 296 294 294 295 295 289 291 293 293 299 307 304 300 304 301 303 308 302 304 300 302 298 300 306 301 301 299 301 308 302 300 308 303 298 300 303 305 306 306 308 310 311 310 307 307 309 311 314 315 315 315 315 314 314 314 315 315 317 316 317 318 316 314 312 313 316 319
308 308 308 308 307 308 308 307 307 304 301 301 305 308 309 308 308 310 309 307 302 295 293 294 295 291 292 287 290 300 307 303 307 307 307 305 303 305 303 301 295 299 306 300 297 299 298 309 306 299 309 301 296 301 302 305 303 304 305 305 307 308 307 308 307 309 310 312 312 313 313 313 313 313 314 314 315 315 316 316 316 317 316 315 314 315 316
308 308 308 308 308 308 304 303 306 306 306 308 309 310 310 310 312 311 308 304 306 306 297 294 291 292 293 294 298 302 305 297 306 302 303 300 299 302 301 299 296 301 300 299 298 299 307 316 305 300 300 297 299 305 307 307 306 306 305 306 307 309 309 310 310 309 308 309 310 310 310 310 310 311 312 313 314 315 315 314 315 315 314 314 315 315 315
308 308 309 306 303 298 301 303 305 312 309 309 311 307 307 305 301 301 301 299 303 303 300 299 292 295 299 296 294 304 305 301 306 299 299 303 299 298 302 299 300 299 294 299 304 311 309 306 302 299 299 303 306 307 308 308 309 310 309 309 308 309 310 311 311 310 309 308 308 309 309 309 309 310 309 311 313 313 314 315 316 317 317 317 317 318 317
307 310 308 305 301 298 301 307 313 310 309 310 308 303 298 302 299 296 297 300 301 296 300 298 294 299 299 299 299 307 303 301 299 301 296 303 299 295 301 295 302 301 295 299 302 311 299 300 302 300 297 303 303 306 310 310 310 311 311 311 311 310 311 312 313 313 311 310 310 311 311 311 310 311 313 313 313 313 314 314 314 315 315 316 316 316 315
310 306 304 303 301 304 310 313 312 310 309 303 304 301 294 301 295 291 301 294 292 298 300 293 300 302 302 299 298 300 309 305 300 299 301 300 305 297 300 300 302 301 293 296 300 309 300 295 299 298 295 302 304 308 310 309 309 310 311 313 313 313 313 313 314 315 314 313 314 313 313 313 314 313 313 312 313 313 313 315 315 315 316 316 317 317 317
306 306 306 303 304 307 309 310 311 309 304 299 299 301 299 292 299 300 297 293 292 296 303 300 302 301 304 303 302 299 309 312 309 309 308 302 308 306 299 297 306 297 294 296 305 308 303 299 299 296 297 303 305 308 310 310 311 312 312 313 314 314 314 313 314 315 315 314 314 313 313 313 314 313 313 314 314 314 314 314 315 316 317 317 317 317 318
306 304 306 308 308 309 308 307 305 302 303 304 296 289 293 297 301 299 298 291 293 297 300 300 296 298 299 304 301 302 306 312 310 309 302 299 306 304 300 302 304 299 292 302 307 305 303 295 294 295 302 307 307 309 309 308 310 311 312 314 313 313 312 312 312 313 314 313 313 313 314 314 314 314 315 315 315 316 316 316 316 317 318 319 319 319 319
306 307 309 307 307 307 307 298 302 302 290 290 289 287 293 288 292 293 295 300 302 301 300 306 305 307 307 309 305 308 305 312 305 305 303 302 308 307 300 297 300 292 298 305 304 299 295 295 294 298 305 307 308 309 311 311 312 312 312 314 314 315 314 314 313 313 314 314 314 314 315 314 314 315 316 316 316 316 317 318 318 319 319 319 320 321 321
310 309 305 305 301 301 302 286 300 297 290 292 289 285 290 289 293 297 293 295 299 299 301 297 299 299 297 307 304 306 308 310 309 307 304 308 305 293 299 293 297 303 308 303 300 294 295 298 300 303 307 308 310 309 310 312 312 312 312 313 314 314 314 315 315 314 314 315 315 315 315 315 316 316 317 317 316 316 317 318 319 320 320 320 320 320 321
304 300 298 296 292 297 294 286 297 291 286 289 292 292 292 290 293 295 294 300 301 298 302 301 301 302 301 306 309 308 307 302 310 305 298 304 300 302 298 294 302 303 297 296 297 297 298 295 302 306 307 307 309 311 314 313 313 313 312 312 313 314 316 315 315 315 314 315 315 315 315 316 316 316 316 316 316 317 317 317 319 319 319 319 319 320 321
301 295 294 290 287 292 292 287 290 288 294 296 293 294 294 296 296 297 301 303 301 301 300 302 304 304 302 305 303 303 307 307 301 303 305 304 298 295 303 308 306 296 296 297 293 291 294 298 303 305 307 308 310 312 314 314 314 315 314 313 314 315 316 316 316 315 315 316 316 316 316 316 315 315 316 318 317 317 317 319 320 320 320 319 318 319 320
299 303 298 294 289 292 300 289 291 295 298 299 301 301 300 301 304 304 306 307 304 305 305 306 307 304 301 303 305 306 306 306 302 304 307 298 297 300 305 299 289 294 292 291 291 294 298 301 306 308 309 311 313 314 314 314 313 312 313 315 315 316 317 317 316 315 315 316 316 316 316 317 317 317 317 317 318 318 319 319 319 319 319 318 319 319 320
294 301 300 289 287 293 293 297 302 302 303 304 304 305 304 306 302 304 307 307 307 306 304 306 302 303 306 307 308 301 304 305 301 299 303 300 302 299 292 296 294 295 296 294 294 299 302 306 306 309 310 314 314 312 312 313 315 314 315 314 315 315 315 315 314 314 315 315 315 316 316 317 316 317 316 317 317 318 318 319 319 319 319 319 318 320 319
305 297 293 292 296 297 297 300 300 295 299 302 306 306 303 305 303 306 307 310 307 306 306 304 302 303 299 303 301 301 297 305 296 293 303 299 294 289 291 288 292 290 296 300 300 303 305 309 310 312 313 311 313 314 314 314 314 314 314 315 315 315 314 314 314 315 315 315 315 315 315 316 316 316 316 316 316 316 318 319 319 318 319 318 318 318 318
298 297 300 296 298 300 301 301 301 298 300 302 303 304 306 305 305 308 310 309 310 310 309 307 308 303 301 301 294 298 296 301 300 297 298 294 295 296 296 291 292 292 295 302 305 306 309 311 311 311 313 313 315 314 314 315 316 315 316 317 315 315 315 314 314 314 314 315 315 315 316 316 315 315 316 315 316 317 317 317 318 318 318 318 318 318 318
304 298 299 304 300 299 300 295 295 296 297 298 301 304 306 306 307 308 311 311 311 307 304 300 302 300 297 295 294 290 292 304 300 295 295 294 299 296 292 291 294 300 303 306 308 310 310 309 312 313 313 314 315 316 315 316 316 316 317 317 317 316 316 316 315 314 315 315 316 314 314 315 316 316 317 317 315 315 314 316 317 318 317 318 319 318 318
297 294 297 301 304 304 303 302 302 301 301 301 303 306 308 306 309 311 314 311 305 301 301 306 303 298 293 292 296 301 304 298 294 296 293 296 301 295 295 297 299 303 306 309 310 310 310 314 313 312 314 314 314 315 315 316 316 317 317 316 317 317 317 316 315 315 314 314 315 315 315 316 316 316 316 315 314 313 312 312 315 316 316 316 317 317 317
Wind_Speed
17 16 16 16 15 11 10 10 10 11 14 12 11 12 9 9 11 14 20 16 13 11 13 12 13 14 14 17 22 20 18 17 16 19 17 16 18 19 17 19 18 18 15 16 16 16 13 13 15 13 14 13 18 5 14 17 18 16 14 19 15 13 11 12 12 12 12 17 17 18 21 22 22 21 21 22 24 21 17 17 16 17 16 18 17 18 12
16 16 17 16 14 11 9 8 8 10 9 10 11 10 10 10 12 12 11 9 8 12 13 12 14 14 17 21 21 18 18 18 17 17 18 15 12 16 16 18 22 18 18 17 16 16 14 16 17 14 14 13 12 10 12 15 15 15 13 15 15 13 13 12 10 10 11 13 15 16 19 20 17 17 20 24 24 29 23 15 14 16 21 23 18 18 14
16 16 15 14 12 10 9 7 7 7 8 9 8 9 10 11 11 14 13 9 9 13 10 13 13 15 18 18 21 21 19 16 21 18 17 17 18 15 16 17 15 17 17 19 19 17 19 10 16 17 13 13 15 14 12 13 13 16 2 4 7 16 12 14 13 16 16 16 17 18 18 20 16 19 23 23 27 31 26 20 17 16 18 22 17 15 14
16 16 14 13 12 11 9 6 7 8 7 10 8 9 9 8 11 8 10 6 9 12 12 13 13 14 15 17 18 19 17 17 21 20 20 18 18 19 18 16 19 20 19 21 20 22 19 18 9 14 15 13 9 11 12 10 18 5 9 4 7 10 13 16 16 15 14 13 10 11 13 13 17 20 25 24 25 27 27 18 19 21 11 17 15 17 16
17 16 15 13 11 11 8 5 8 9 8 8 8 8 8 8 11 8 9 8 9 9 7 8 9 8 13 9 9 14 15 13 14 17 17 19 21 18 18 17 18 18 22 20 21 23 21 22 21 15 15 17 13 14 17 15 18 8 7 1 10 9 13 19 22 22 17 15 16 13 16 18 20 22 22 25 26 25 24 20 21 19 19 18 11 15 24
16 16 16 14 11 10 8 7 8 8 8 6 7 8 7 8 7 10 6 8 7 11 9 7 9 12 13 11 13 13 12 12 12 14 17 19 18 17 16 20 21 19 18 18 17 19 22 19 21 21 18 14 17 18 21 17 11 4 11 9 11 13 14 17 21 22 23 22 17 16 16 17 18 20 21 22 24 26 27 26 25 23 22 22 16 15 21
17 16 15 14 12 10 9 8 8 7 7 6 7 7 8 10 8 11 10 11 10 12 13 15 12 13 12 9 13 14 14 14 13 11 14 15 15 18 18 21 22 21 20 18 16 17 17 20 18 17 18 20 13 15 17 17 16 12 12 14 10 11 13 15 17 19 21 23 24 19 21 20 21 22 20 21 22 25 27 26 26 28 21 22 23 20 26
16 15 15 14 12 11 9 9 8 8 5 7 10 10 9 7 7 7 7 11 12 13 13 13 10 11 10 9 10 12 13 15 14 14 10 10 15 19 19 18 16 18 22 21 18 19 18 15 18 18 17 15 17 14 13 13 17 16 17 13 16 14 12 12 15 15 18 21 22 24 24 22 22 21 22 23 22 24 26 26 26 25 27 28 25 24 24
17 16 15 15 12 11 10 9 8 7 6 8 8 10 10 8 7 6 10 12 11 12 13 14 13 10 9 10 12 13 15 16 15 16 13 13 14 14 15 18 19 18 18 18 24 20 17 17 17 12 16 16 13 14 9 15 12 19 17 16 15 17 12 12 14 15 15 16 20 23 23 24 25 23 23 24 24 23 22 22 23 24 23 23 26 24 19
18 17 17 15 14 10 10 8 8 9 10 8 5 11 7 11 5 7 8 11 9 12 12 14 13 14 12 12 14 12 14 15 11 12 12 15 17 13 12 14 14 14 16 11 14 19 21 20 16 16 13 10 17 20 13 14 18 12 16 14 15 13 12 13 14 15 15 14 17 18 19 18 19 22 24 25 24 22 21 23 22 22 24 23 20 19 18
19 18 17 16 15 15 14 11 10 10 9 9 8 8 7 9 8 5 6 12 10 11 12 13 14 13 14 13 15 16 17 15 13 13 7 9 13 13 12 11 11 11 13 13 18 18 20 18 17 12 9 8 8 5 6 12 12 13 12 15 17 17 14 13 11 13 13 19 19 17 16 18 20 18 21 23 24 24 25 24 25 24 20 17 18 19 18
18 19 17 16 14 14 13 12 13 10 13 10 9 9 9 7 11 5 7 11 12 11 11 11 12 12 14 13 13 14 15 15 15 11 15 14 14 15 16 12 10 11 12 20 19 20 19 15 14 12 10 9 11 11 13 15 14 13 12 12 12 16 14 14 12 12 12 11 14 15 18 18 15 13 17 21 25 26 27 26 25 24 25 26 24 21 20
18 18 17 16 15 14 13 13 13 12 13 11 10 12 10 11 6 7 8 10 12 11 10 12 12 15 16 16 15 15 14 15 15 16 16 17 16 15 13 11 10 11 14 17 18 17 14 11 10 10 10 10 14 16 20 20 19 18 14 14 11 11 13 10 12 11 9 11 12 14 17 11 11 11 13 18 21 23 24 27 27 26 26 25 25 22 21
18 17 16 16 15 13 13 13 12 14 13 13 11 10 9 11 6 5 6 7 10 10 13 13 13 15 15 15 15 16 15 16 15 15 16 14 16 16 15 14 13 11 11 12 12 11 9 7 7 7 8 8 9 13 19 22 22 21 21 18 16 14 10 12 12 11 13 12 13 15 8 13 13 11 9 7 8 12 12 8 13 17 19 24 23 23 21
17 18 17 15 14 13 13 12 12 12 13 12 11 10 11 8 7 7 5 6 10 12 10 11 10 13 14 15 14 11 9 11 12 12 15 14 15 12 12 11 10 11 10 10 8 6 6 6 8 10 10 12 13 14 14 15 17 25 23 20 17 15 16 10 12 10 12 12 13 13 13 16 13 6 4 1 4 8 9 9 14 15 19 20 22 22 23
17 17 16 15 14 13 12 12 12 12 13 13 11 10 10 9 8 7 8 7 7 10 10 10 9 8 9 11 11 12 10 9 9 11 11 10 11 10 10 7 7 8 9 8 7 6 6 9 11 11 12 13 13 11 12 11 13 18 23 22 21 19 16 13 14 12 12 14 14 13 14 10 1 7 3 5 5 7 8 6 16 12 17 18 18 23 24
16 14 13 11 12 15 13 12 12 12 13 12 10 9 10 9 8 7 8 6 7 12 11 16 14 14 11 11 10 9 7 7 7 8 7 8 9 8 7 5 7 8 8 7 7 8 9 11 11 11 12 13 13 13 12 13 14 15 21 24 25 22 17 15 16 17 14 12 13 15 9 5 3 1 3 4 5 5 6 13 13 6 12 16 20 22 21
15 13 12 13 13 13 12 11 10 9 11 11 10 9 9 8 10 9 8 7 9 12 14 16 16 11 9 6 10 11 9 8 8 7 9 9 10 7 7 6 8 10 11 11 8 10 11 11 13 13 14 12 12 12 14 12 16 16 18 19 18 19 18 17 19 17 16 17 13 11 10 5 11 4 4 2 2 5 9 12 3 13 15 16 17 18 21
13 11 13 14 12 12 12 10 10 10 11 10 9 10 10 10 7 4 4 6 8 11 10 10 9 14 11 8 11 11 10 11 10 8 8 7 2 7 9 9 5 4 11 10 9 10 11 12 10 11 12 12 12 12 10 15 15 14 18 20 20 20 16 15 15 18 18 16 15 14 10 2 8 6 3 1 6 10 12 4 5 8 12 13 14 18 18
14 12 12 13 12 11 10 9 9 10 11 10 9 10 9 10 9 11 9 10 8 12 13 14 11 16 11 12 10 9 10 11 9 8 8 8 4 12 7 7 7 6 6 6 11 8 8 11 10 6 12 11 10 6 8 15 16 16 15 20 17 17 16 17 17 13 13 13 15 12 13 7 6 7 8 5 10 2 1 6 7 7 7 12 14 14 17
13 13 13 11 11 10 10 9 9 10 11 11 11 9 9 8 8 9 10 8 7 10 12 12 15 16 14 15 16 17 16 14 11 9 7 7 8 7 5 2 6 5 5 5 6 8 5 6 9 7 5 7 6 4 7 9 14 19 19 17 18 14 15 13 13 12 14 14 14 8 4 8 7 8 6 6 2 4 4 5 5 7 7 8 7 13 15
12 12 11 8 8 10 10 10 9 9 10 10 10 9 10 9 8 9 9 8 8 11 10 12 14 15 15 15 14 13 13 15 16 14 13 10 7 8 10 12 8 5 3 3 5 3 4 3 3 3 7 8 5 7 7 9 12 10 17 11 16 17 16 13 12 13 12 10 8 8 9 8 6 7 6 3 4 3 3 2 3 4 5 6 5 7 6
11 10 10 8 9 10 9 9 9 9 10 10 9 8 10 6 6 4 4 4 7 11 13 14 14 15 15 17 17 17 17 17 16 14 13 11 10 8 10 9 8 4 5 4 4 4 3 3 5 6 7 6 5 5 8 8 10 6 8 8 5 9 15 11 12 8 12 16 12 8 6 9 9 9 8 7 5 3 0 2 1 6 6 8 7 13 4
11 9 9 8 8 10 9 9 9 9 10 10 10 8 8 7 4 2 3 5 7 8 10 13 13 13 12 15 13 14 17 16 15 14 14 12 10 9 9 9 7 5 5 2 3 4 6 5 4 3 8 5 7 6 7 8 10 6 3 8 11 8 10 16 15 8 8 3 5 10 10 10 10 13 13 11 8 7 7 8 6 8 8 7 10 13 18
11 10 10 9 9 9 8 8 8 9 10 9 10 9 8 8 7 5 2 5 5 6 7 8 10 11 13 14 12 11 10 11 13 14 14 15 16 13 8 4 6 5 4 2 3 5 3 5 4 4 8 7 5 7 5 5 6 3 1 0 7 3 13 6 10 10 7 8 11 13 15 14 14 10 10 13 12 12 11 11 11 7 6 3 2 1 8
9 9 9 9 9 9 8 8 9 8 8 10 9 8 8 8 4 5 5 5 8 7 9 10 10 8 9 11 13 12 11 10 11 15 18 17 16 16 15 12 10 5 6 3 2 3 5 6 5 6 7 7 6 6 6 8 10 6 1 1 6 13 12 2 7 6 8 14 13 14 16 16 14 15 14 11 11 15 14 14 13 12 14 13 14 12 6
10 10 10 9 9 9 10 9 9 8 8 9 8 8 9 9 3 5 4 5 5 7 8 9 8 9 9 13 12 11 11 11 12 13 14 16 16 14 13 12 10 8 7 7 5 3 3 5 6 7 7 7 9 11 9 9 7 4 3 4 11 6 5 9 7 7 11 9 13 14 10 9 10 13 13 13 15 17 18 18 16 14 13 12 13 12 13
9 10 10 9 9 9 8 10 10 10 9 10 10 10 9 10 7 7 9 9 7 8 11 12 12 13 15 19 15 13 13 14 14 14 13 13 14 12 12 11 10 9 8 7 7 5 5 6 7 5 6 7 8 8 6 7 7 1 6 6 7 6 6 6 6 3 6 13 14 7 15 15 10 11 13 14 15 17 19 18 16 16 15 14 14 12 13
9 9 9 10 8 8 9 8 9 10 9 10 7 9 10 9 7 2 6 7 4 7 8 11 12 12 10 7 7 9 8 10 12 13 13 13 13 12 12 11 10 9 8 7 5 3 6 6 6 6 5 2 5 8 6 5 3 3 4 6 6 5 6 8 8 6 7 13 13 12 12 15 12 12 14 15 15 16 18 16 16 17 17 15 14 15 14
9 8 9 8 8 8 8 8 8 9 10 8 6 4 6 3 2 4 3 5 3 2 5 8 10 7 8 10 12 10 10 11 12 13 14 12 12 11 10 10 9 8 7 7 4 6 5 6 6 6 8 5 4 4 5 4 2 3 2 3 4 6 8 9 8 6 7 11 14 15 18 15 11 13 15 16 16 15 14 14 14 14 15 15 14 13 14
10 10 8 9 8 7 8 8 9 8 7 7 5 5 5 3 2 3 1 2 1 4 4 5 10 11 14 12 11 11 9 9 10 11 12 11 10 10 8 8 9 8 8 6 4 4 1 5 4 4 3 7 6 4 4 5 3 3 4 5 6 7 8 8 7 7 13 13 14 15 16 14 11 14 16 14 14 14 13 12 11 12 13 14 14 14 13
11 11 10 9 10 8 9 9 10 9 7 8 7 5 4 4 1 1 3 3 1 3 4 7 8 6 6 4 2 10 11 10 10 8 8 9 8 8 10 10 8 9 7 6 4 2 4 5 6 6 8 5 5 4 5 2 3 4 5 6 7 7 8 12 12 7 11 13 14 15 14 12 9 9 8 8 11 12 12 9 9 10 10 9 10 11 10
12 12 11 11 10 11 10 10 10 9 8 10 16 18 16 16 8 3 3 2 3 5 3 6 7 7 6 8 11 10 10 7 6 6 6 4 7 9 9 10 8 6 5 4 3 3 1 3 1 4 9 7 3 2 2 5 6 7 7 8 7 9 12 11 12 12 5 8 5 8 11 11 13 13 11 10 9 9 10 9 6 8 6 6 9 9 9
13 13 13 12 12 11 11 12 12 12 13 10 8 4 1 6 8 10 6 3 4 4 3 4 5 6 7 8 7 8 6 6 4 6 6 6 6 8 7 8 7 6 8 7 2 1 2 1 5 8 6 3 3 2 3 5 7 8 8 8 7 8 10 15 16 15 14 14 15 15 15 13 12 12 12 11 11 9 7 8 7 5 5 6 9 9 11
16 15 13 14 14 13 13 13 9 8 6 6 5 3 5 3 1 9 9 5 4 4 4 5 5 5 8 5 4 2 3 4 5 6 5 7 8 8 7 7 6 6 6 5 3 5 4 6 5 5 3 2 1 3 3 5 8 8 8 9 8 8 13 14 13 11 11 11 13 14 13 12 13 13 13 13 11 8 7 6 5 6 6 8 8 9 9
16 15 14 13 13 12 9 9 7 4 4 4 1 8 10 9 7 5 7 8 6 5 5 4 4 7 5 5 6 2 1 4 4 7 6 8 8 7 7 6 7 6 4 6 4 5 6 5 5 1 0 1 4 2 5 7 10 11 11 12 12 12 12 12 11 12 12 12 13 13 14 13 14 13 11 10 9 8 6 6 5 5 7 6 7 6 6
17 14 13 11 7 4 5 4 5 6 2 3 7 7 4 5 3 3 5 5 6 6 6 6 6 7 4 6 4 3 4 4 1 3 5 7 7 8 9 8 7 5 5 4 7 7 7 6 5 4 3 5 4 5 7 8 9 10 10 10 10 11 11 11 11 12 12 11 12 11 10 12 11 9 9 9 8 6 7 8 6 5 6 5 3 4 5
18 13 6 4 3 4 3 2 1 5 8 8 8 6 3 4 4 3 4 5 4 5 5 2 7 7 6 7 7 3 2 1 1 4 5 7 8 7 7 6 5 6 7 5 3 1 1 3 4 7 7 7 7 8 8 8 8 8 8 7 8 7 7 8 8 8 10 9 9 8 8 9 9 8 8 7 6 7 5 4 4 5 4 4 3 0 2
16 7 6 5 3 2 4 5 3 5 7 5 4 2 3 4 3 3 3 3 3 4 4 4 6 5 6 6 7 4 2 1 3 3 6 8 5 7 5 6 4 3 1 1 2 1 2 5 4 8 8 6 8 7 5 6 8 7 6 5 3 4 5 7 7 8 9 8 7 7 6 6 7 6 5 5 5 5 5 5 6 6 5 4 3 1 3
5 6 5 5 2 6 5 2 2 5 4 3 2 3 3 3 3 2 1 2 3 5 5 5 5 6 4 6 7 5 1 2 1 1 2 3 4 3 6 2 2 3 3 2 2 3 0 4 4 5 9 6 6 5 4 6 8 7 5 5 6 5 5 6 7 7 8 8 7 6 6 6 5 5 5 5 5 6 6 5 3 3 3 3 2 3 3
6 6 5 5 7 7 7 8 7 4 3 3 3 3 2 2 4 1 1 3 3 1 1 6 5 4 5 7 7 6 2 2 3 3 3 3 1 4 5 1 2 2 2 1 2 2 2 5 5 6 6 5 5 6 6 6 6 7 8 8 8 7 6 6 6 5 6 7 6 6 5 5 4 5 5 5 6 5 5 4 4 4 4 4 3 3 2
6 6 6 9 9 8 8 6 4 3 3 4 2 2 2 3 2 1 1 3 4 4 5 6 6 7 8 6 6 6 6 2 3 3 4 2 5 5 4 3 0 2 3 4 3 2 1 5 5 8 6 5 6 7 6 8 7 7 8 7 7 6 7 7 8 8 7 7 6 5 3 4 4 4 4 5 6 5 4 4 4 5 5 5 4 4 4
14 11 7 7 5 4 3 3 2 3 2 1 1 2 3 2 4 3 3 1 2 2 4 2 2 5 8 5 6 4 6 4 1 3 2 1 3 2 1 1 2 2 3 2 2 2 5 5 6 8 6 6 5 6 6 6 6 6 7 6 7 7 8 9 9 9 9 8 8 7 5 5 5 5 6 6 7 7 6 5 5 5 6 6 6 5 5
5 4 4 3 3 5 4 2 3 3 3 2 4 5 5 3 5 5 4 5 5 3 6 6 7 7 5 2 3 5 5 2 3 1 2 2 2 1 3 2 5 4 1 2 3 7 7 5 6 8 6 5 4 7 6 5 5 6 6 6 7 8 8 9 10 10 9 8 8 8 7 6 6 6 6 6 6 7 7 7 6 6 8 8 7 7 6
4 2 2 2 2 3 1 2 3 2 3 5 3 4 6 7 7 7 6 5 6 7 6 7 8 7 4 4 4 1 2 3 6 3 2 2 2 4 3 2 3 2 2 6 5 5 5 7 6 6 6 7 6 5 4 5 5 6 7 8 9 9 8 9 10 9 9 9 9 9 8 7 7 7 7 6 7 7 7 6 6 7 8 8 7 7 7
2 3 3 3 3 3 3 2 2 2 2 2 3 4 5 5 5 6 4 4 6 6 6 7 6 5 4 3 4 4 4 1 2 4 4 3 4 5 4 5 3 3 4 5 6 7 8 9 6 5 6 7 6 6 4 5 6 7 8 8 9 9 10 10 10 10 10 10 10 9 9 8 8 7 7 7 6 6 7 6 6 6 6 7 7 7 7
2 2 1 1 2 2 2 3 4 2 4 4 3 3 3 5 5 6 6 5 6 4 6 4 4 2 4 3 2 1 1 3 5 5 4 5 4 1 1 4 3 3 4 7 5 5 7 8 6 6 7 7 6 5 3 5 9 6 6 7 8 10 10 10 11 11 11 11 11 10 9 9 8 8 8 8 8 7 7 7 7 7 7 8 8 7 7
2 3 2 3 3 3 6 4 3 6 8 7 6 7 8 4 4 5 5 5 5 5 5 2 1 3 2 1 2 3 4 4 4 6 5 2 1 3 2 3 5 4 4 4 7 5 7 8 8 5 4 5 6 5 3 3 9 10 10 10 11 10 10 10 10 10 10 10 10 10 9 9 9 8 9 9 9 8 8 7 7 7 7 7 8 8 8
2 2 3 3 3 3 4 7 2 2 7 6 5 5 4 5 5 8 5 5 5 5 5 6 3 1 1 4 1 3 4 5 3 2 1 3 3 2 2 4 5 6 5 4 8 8 7 5 7 8 6 6 3 3 5 7 8 9 10 10 10 9 9 10 10 10 10 9 9 9 9 9 8 9 9 8 8 8 7 7 7 7 7 7 7 7 7
3 3 3 4 1 3 7 8 9 7 7 10 10 10 10 9 9 8 7 7 5 8 8 5 7 2 4 2 3 4 4 5 5 2 5 7 5 4 5 6 6 5 5 5 7 7 6 5 7 7 7 7 6 6 7 7 7 8 9 10 8 8 9 10 10 10 9 9 9 9 9 8 8 7 7 7 7 7 7 7 7 7 7 7 6 6 6
2 2 5 8 10 9 10 12 13 12 12 12 12 11 11 10 10 9 8 8 6 2 3 4 4 3 3 3 2 2 2 4 3 7 4 5 4 4 3 5 5 4 5 6 6 6 7 6 5 6 7 7 6 6 7 8 7 7 7 7 8 8 8 9 9 8 9 8 9 8 8 7 7 6 5 5 6 6 7 7 6 6 7 6 5 4 5
3 4 7 8 8 9 9 7 8 10 10 11 11 11 11 11 11 10 11 11 9 5 6 2 3 4 4 5 3 3 1 1 4 3 7 7 4 4 5 5 5 3 4 5 5 7 4 3 6 7 6 5 5 5 6 7 8 7 7 7 7 6 7 8 7 7 8 8 8 8 7 6 5 4 6 7 7 6 6 6 5 6 7 6 6 4 3
Wind_Direction
300 300 302 305 309 312 314 314 317 325 325 328 347 318 296 280 268 307 312 299 274 255 256 257 252 245 249 259 256 261 255 250 248 253 254 251 227 242 236 236 245 247 257 238 247 243 242 230 219 228 215 238 194 205 195 214 212 201 198 204 203 199 233 202 223 246 216 203 222 218 206 225 230 223 220 215 221 227 221 225 224 228 215 221 230 234 232
303 304 305 308 311 307 309 309 316 320 330 328 326 320 304 301 297 292 278 275 242 244 245 249 243 245 250 250 258 251 252 250 248 245 244 242 243 232 234 239 236 249 233 250 247 233 246 219 234 222 222 229 210 201 195 217 222 200 187 210 174 213 199 238 195 217 237 213 197 224 208 207 226 225 216 218 219 226 232 232 229 235 224 225 226 237 219
301 302 305 305 305 302 300 307 311 311 311 319 321 311 313 296 277 258 248 232 232 238 243 254 267 266 261 254 242 237 240 247 254 254 243 240 251 254 240 240 238 228 238 240 241 244 240 242 220 249 227 230 210 200 195 198 240 211 138 331 174 212 186 201 219 202 207 203 201 201 203 203 209 228 227 216 217 223 223 219 221 229 218 227 232 232 237
305 304 301 299 301 297 297 308 314 302 301 300 295 309 303 300 296 308 292 240 219 240 259 275 281 280 285 283 276 275 267 238 223 232 252 261 255 246 259 249 237 243 224 230 234 233 232 240 229 213 230 235 215 224 211 194 223 37 8 247 225 227 209 198 219 228 213 220 223 202 213 199 211 212 227 228 221 227 225 223 223 236 231 223 228 247 234
302 301 300 299 298 296 293 287 290 290 285 288 294 292 278 292 273 285 280 308 277 256 257 285 337 324 334 318 325 282 278 282 280 260 252 224 242 259 250 245 242 228 233 229 226 232 233 226 239 237 229 223 229 208 224 206 224 39 258 236 229 232 236 212 206 229 245 222 222 225 204 222 213 218 216 223 230 223 230 222 226 232 240 231 218 224 241
296 296 296 294 287 279 285 276 268 266 273 285 284 280 274 267 274 280 307 288 289 286 260 344 323 318 310 309 309 300 303 297 286 301 273 263 238 237 240 257 252 252 237 229 232 219 229 227 224 228 238 249 217 220 209 220 186 136 237 221 223 226 233 229 214 209 227 246 243 221 226 231 232 216 218 218 224 232 224 226 231 225 231 243 211 218 236
298 297 295 292 289 281 269 258 252 257 264 272 260 271 268 273 282 280 299 277 279 274 294 301 299 296 301 297 295 296 289 282 280 285 310 314 293 247 240 230 239 249 255 239 227 227 221 220 228 224 221 228 238 223 186 208 214 220 233 218 218 232 231 233 224 222 213 223 238 244 231 224 234 235 219 217 222 228 237 237 230 232 237 238 239 228 226
298 300 299 298 292 282 264 258 250 238 242 260 267 256 273 281 302 304 301 281 278 282 278 270 269 270 268 263 263 279 283 280 282 278 290 319 315 318 264 255 263 261 251 248 243 228 233 239 217 215 242 216 223 259 236 191 205 218 211 218 205 226 214 232 236 236 230 220 222 232 243 246 230 229 234 235 227 222 222 235 242 239 239 240 239 240 242
294 294 291 290 296 300 284 256 240 234 216 261 244 251 248 268 280 293 292 289 279 280 281 273 266 262 246 245 248 255 257 268 272 282 296 282 285 293 331 343 329 316 322 287 243 245 240 240 247 238 215 232 224 235 223 236 225 200 213 210 207 202 231 217 230 239 234 227 226 227 230 235 246 240 231 227 231 238 230 221 218 235 238 238 239 239 237
288 287 289 289 289 271 267 256 237 224 212 250 262 266 273 270 252 260 273 274 274 279 273 269 274 258 252 251 255 256 255 259 268 274 273 276 268 290 357 339 332 321 310 316 353 343 342 339 333 319 293 266 237 218 232 225 235 221 213 210 219 198 215 217 215 231 238 232 235 239 241 247 245 238 237 240 234 230 236 248 237 223 231 237 234 239 241
290 290 288 291 287 281 273 260 249 219 209 237 250 260 276 283 280 259 258 273 275 270 273 270 262 270 278 260 257 250 254 261 263 259 264 293 299 312 322 328 329 312 296 344 336 329 326 314 299 289 292 285 326 296 264 268 270 281 259 209 212 209 208 222 212 229 231 227 229 230 235 232 232 233 236 243 252 243 233 231 234 236 233 235 237 242 240
286 285 286 284 284 281 276 277 266 227 226 245 255 263 262 266 275 261 262 266 273 275 271 272 276 281 272 278 276 274 265 254 252 255 270 277 284 295 296 301 304 280 320 328 327 325 314 292 269 259 267 284 277 275 275 272 267 255 256 263 239 207 194 218 220 228 227 222 224 227 230 233 238 242 239 239 241 250 257 253 243 237 239 242 240 238 236
288 286 284 283 283 284 278 266 262 253 231 247 240 253 253 258 292 284 268 265 275 280 279 275 280 278 279 278 272 270 267 262 260 258 257 265 274 275 272 281 272 286 316 315 324 320 316 308 310 299 278 258 258 266 267 263 257 250 244 241 252 217 204 210 222 221 229 226 214 226 226 232 239 229 232 230 237 243 246 253 254 241 236 239 241 241 240
293 286 284 282 280 277 277 270 265 258 242 241 250 250 257 251 238 246 249 255 259 270 274 280 274 272 271 274 278 271 270 270 269 260 251 246 256 258 269 264 273 298 297 316 311 319 303 295 276 255 241 245 254 251 248 250 245 244 242 239 224 233 214 211 224 215 224 213 222 231 252 257 232 239 243 266 268 257 253 294 286 285 267 237 236 238 242
288 285 280 278 274 271 270 271 266 260 251 237 251 251 251 256 248 237 246 250 272 272 280 277 290 298 300 290 287 286 280 276 264 250 250 251 244 246 257 270 284 282 299 297 306 313 295 303 253 230 224 219 221 231 225 232 234 236 235 232 232 217 225 205 228 206 217 221 223 229 228 234 227 187 107 316 342 344 359 317 281 272 290 274 240 239 235
290 289 288 284 285 276 270 273 270 263 253 239 248 250 249 242 246 264 255 249 263 271 258 260 260 300 308 295 295 294 298 293 285 287 276 246 253 258 244 258 274 289 277 273 266 274 284 253 241 234 226 219 219 227 214 217 230 218 220 225 225 224 222 218 218 228 216 223 229 230 233 229 161 116 91 66 7 355 5 270 254 254 268 279 264 244 240
292 292 298 295 280 277 274 269 261 253 255 240 249 246 248 231 220 218 233 225 228 249 277 289 298 289 285 281 274 258 261 285 316 300 286 272 269 273 241 247 269 253 257 268 253 249 241 238 245 244 241 243 226 215 223 216 217 212 204 212 217 220 214 209 215 217 221 223 223 229 229 197 145 185 114 58 18 357 251 251 252 288 305 297 292 280 258
300 311 301 289 279 277 280 277 267 263 253 233 244 259 259 240 223 221 235 238 244 256 256 261 270 269 263 295 290 295 289 271 272 288 279 287 276 268 295 287 261 233 220 235 236 243 240 239 234 229 236 231 250 235 226 207 214 210 200 196 201 209 215 211 217 216 213 216 230 240 236 187 152 177 114 23 351 276 231 233 320 346 328 325 318 315 295
307 302 293 288 283 277 271 273 278 273 263 235 236 256 258 252 236 188 226 254 232 249 253 259 266 265 281 291 276 281 282 290 294 286 282 270 235 352 307 264 261 246 192 227 229 238 238 238 237 241 244 232 232 242 251 231 217 213 210 200 203 207 209 206 219 219 219 214 228 231 244 202 147 133 191 222 224 229 237 23 343 317 329 320 323 315 310
308 311 299 289 283 274 275 279 272 267 256 237 225 245 253 243 219 199 205 225 233 249 263 264 264 272 280 275 275 273 283 270 257 271 278 270 351 342 308 236 179 239 248 247 237 229 241 241 241 252 244 243 238 276 275 264 248 228 211 205 208 198 200 202 205 215 219 221 226 224 228 135 221 121 185 144 237 142 1 314 331 338 327 340 324 313 302
310 308 300 297 288 280 280 274 268 264 258 250 236 252 255 248 248 226 220 230 247 264 265 260 263 262 263 266 266 265 264 266 270 268 265 277 323 322 269 90 6 317 230 203 250 233 236 252 247 240 280 262 275 331 250 262 257 248 235 210 215 179 207 203 212 211 219 218 220 231 260 126 183 190 224 132 259 4 354 347 324 350 339 325 342 307 278
303 302 297 297 288 284 281 280 271 265 262 249 241 250 257 256 243 215 212 215 240 243 260 287 295 293 283 274 270 269 266 267 270 277 279 275 267 267 287 299 287 296 283 292 254 277 17 330 281 254 242 252 274 244 290 256 245 266 238 217 212 189 212 204 217 189 231 244 223 102 104 105 99 85 89 83 67 48 9 26 9 337 321 328 311 251 256
308 304 300 292 286 283 283 280 273 263 255 250 237 242 252 260 260 279 94 237 255 265 272 270 265 263 262 261 261 261 258 255 256 255 262 266 266 259 261 266 261 264 291 300 298 311 342 321 286 319 302 271 261 296 280 236 256 269 267 210 263 200 217 219 227 189 87 70 68 106 102 104 108 89 57 52 67 95 191 117 127 45 1 340 342 322 38
312 306 295 295 292 289 288 283 277 267 260 250 244 261 259 272 351 114 204 226 247 273 264 250 254 259 261 263 255 235 231 235 239 242 240 242 252 253 243 246 267 255 264 58 90 304 323 315 297 294 285 279 294 271 254 253 240 283 316 308 245 255 238 217 219 156 170 108 112 103 97 94 105 94 68 64 64 77 61 67 42 58 23 13 20 356 334
312 309 304 304 302 300 292 285 276 274 263 261 257 258 275 283 256 244 268 260 235 228 278 291 265 270 271 269 263 257 242 232 219 228 235 226 229 243 248 70 16 330 8 356 323 281 293 297 308 300 288 303 321 276 265 270 258 93 31 45 309 198 359 317 206 144 217 147 123 92 79 70 67 85 69 53 56 88 93 64 70 101 162 128 108 111 322
314 309 311 306 306 301 294 281 280 278 269 254 256 260 255 251 210 190 223 252 272 281 279 277 280 288 283 254 237 240 243 243 241 222 216 224 228 234 253 269 270 276 296 316 4 301 294 282 292 284 287 297 4 325 308 310 306 299 120 1 326 301 303 54 276 182 92 111 126 113 90 80 80 78 63 47 49 54 66 102 108 86 65 64 70 76 74
329 322 320 314 310 308 302 296 285 279 267 258 248 252 254 272 252 170 215 236 282 269 237 256 290 297 295 294 304 294 266 245 228 228 228 225 227 229 237 244 258 267 264 264 246 278 273 275 274 266 270 279 324 292 286 303 298 264 106 6 341 326 42 0 318 155 155 178 156 154 141 121 100 79 66 54 56 61 54 43 45 54 74 74 63 45 54
322 323 323 321 316 307 299 289 288 285 279 270 261 251 253 259 260 236 215 237 242 271 299 297 295 303 313 293 281 264 246 240 241 241 235 227 222 228 229 230 237 246 247 259 265 243 243 260 261 291 292 311 305 284 279 265 261 156 42 8 352 20 359 0 41 45 221 162 161 118 93 91 86 94 83 66 54 55 54 39 26 29 30 42 56 53 41
326 326 325 318 313 308 305 302 293 290 283 275 282 281 267 259 255 321 328 294 305 267 267 280 287 280 280 309 311 284 257 227 213 222 225 223 220 217 225 229 229 231 243 248 251 290 287 274 288 272 263 252 297 287 305 240 222 34 23 345 353 357 336 351 350 326 70 97 110 112 112 109 106 92 83 73 66 60 53 44 34 24 19 26 33 33 37
326 325 320 313 315 307 300 294 297 289 284 283 278 286 279 213 222 253 255 270 215 228 274 291 295 295 308 289 279 268 243 217 216 207 210 215 211 210 218 228 232 243 251 250 242 254 257 281 265 263 254 235 262 285 268 261 125 91 57 13 6 353 2 349 345 309 107 87 87 93 98 94 89 83 76 76 72 70 63 50 38 28 18 16 28 34 36
325 317 314 309 305 305 299 293 287 303 294 266 265 271 273 261 89 331 20 259 295 274 290 274 278 299 288 265 257 234 223 202 196 203 201 204 202 206 208 216 231 229 228 231 233 229 4 256 274 256 247 196 204 259 292 272 169 119 46 26 32 23 16 12 358 96 102 105 95 95 90 93 94 79 62 66 78 75 71 58 37 33 24 11 20 25 25
319 317 310 310 302 297 292 290 286 279 269 280 259 282 327 353 5 20 22 313 298 258 261 284 291 277 290 296 239 244 218 187 184 190 189 176 186 188 201 212 220 209 226 236 216 269 240 260 256 272 291 253 231 266 270 275 89 78 58 69 47 40 45 34 21 62 112 117 121 108 99 90 62 76 93 72 66 71 71 60 50 45 30 20 8 15 18
314 312 309 304 303 295 289 289 287 279 278 300 309 292 272 258 245 253 239 301 290 268 276 277 282 300 278 327 328 345 277 193 152 145 138 179 185 183 204 198 218 209 186 220 204 237 246 249 188 265 259 245 231 265 1 91 87 78 71 69 63 61 67 57 44 32 83 140 128 111 106 97 98 90 81 66 60 72 77 66 37 36 28 21 28 18 23
305 300 299 296 289 288 282 278 276 277 274 264 267 234 139 189 208 202 227 241 273 257 248 269 280 290 303 330 323 315 308 116 166 158 175 183 202 192 192 191 191 217 175 217 173 197 252 255 252 266 270 232 248 188 92 96 87 68 69 72 83 82 67 58 45 33 40 72 76 83 93 101 103 101 89 73 59 54 72 80 71 39 44 18 31 22 12
304 296 288 281 279 277 278 274 271 247 252 252 250 133 127 125 316 169 198 207 247 237 232 234 224 285 311 319 292 256 330 170 195 219 170 199 188 196 171 196 168 223 170 179 218 229 234 238 240 227 195 200 129 97 82 72 64 68 74 84 77 70 63 60 47 45 43 62 89 97 97 89 85 76 70 66 61 53 43 38 59 60 41 33 28 27 18
304 298 289 282 278 275 273 250 242 253 248 268 359 97 128 151 161 187 205 216 247 293 288 286 304 293 318 307 324 343 12 251 213 198 182 165 180 187 190 184 184 223 126 139 231 200 228 216 223 158 169 93 61 49 74 65 73 70 72 68 65 67 68 76 81 66 53 57 64 67 67 67 69 72 73 71 70 74 75 77 69 60 56 33 19 10 7
297 293 288 281 279 239 242 252 202 223 349 339 335 308 230 218 243 220 205 224 222 232 271 301 292 288 284 295 287 273 351 305 36 223 211 182 178 173 190 186 206 150 158 207 216 235 226 181 210 105 60 79 86 73 83 81 80 71 69 71 78 74 75 78 80 82 75 53 50 56 66 73 68 65 69 66 61 55 53 46 31 36 58 66 45 8 23
303 293 297 276 189 263 249 147 344 24 336 285 262 263 179 198 240 196 199 235 207 202 233 243 270 271 263 263 273 238 245 56 349 267 214 186 174 176 180 204 197 163 198 217 206 355 153 160 104 92 89 80 75 69 73 82 81 71 65 68 69 69 68 69 77 90 93 87 76 74 77 78 81 76 79 74 62 54 44 42 47 56 49 43 79 86 287
290 257 210 213 155 278 343 26 41 304 282 283 237 248 229 229 240 245 215 216 151 228 215 232 256 248 273 284 300 234 340 54 149 242 214 168 201 155 195 205 163 202 142 129 209 211 115 97 91 85 72 59 61 54 59 77 79 75 83 93 92 77 69 72 66 75 82 78 68 48 58 73 85 88 86 81 73 64 52 52 59 45 32 27 359 37 14
322 319 341 324 0 4 337 44 97 307 295 308 253 272 276 195 228 255 158 241 234 212 177 230 238 262 270 287 303 315 51 295 262 168 247 149 198 197 137 190 244 188 168 236 119 213 153 99 96 93 78 64 72 67 80 86 94 97 95 89 89 86 63 54 63 72 79 78 74 74 68 67 68 83 95 95 89 83 80 71 73 90 72 59 21 26 64
338 331 307 334 353 323 318 317 309 258 254 225 245 233 265 272 237 287 235 242 267 113 101 332 318 329 353 343 321 298 62 62 275 263 283 254 20 260 159 147 146 145 104 74 62 31 44 100 74 76 85 82 78 77 73 70 66 74 78 85 89 88 88 89 97 92 76 75 73 70 71 74 68 71 74 82 90 90 94 93 83 83 104 110 109 106 130
336 312 306 298 291 285 291 266 235 235 220 248 315 304 255 278 297 239 285 335 9 356 1 5 345 352 333 342 304 319 301 260 296 63 38 302 12 38 76 177 196 304 95 102 144 146 213 87 87 85 71 71 77 79 78 80 77 77 78 76 90 105 112 109 100 96 98 95 92 95 108 112 108 107 112 110 105 107 106 99 103 106 108 122 129 115 95
287 263 255 292 269 252 251 306 18 289 336 341 315 280 323 338 327 335 274 68 22 352 18 320 300 298 266 255 277 235 270 31 22 123 225 80 99 38 275 193 98 87 55 85 27 71 66 68 84 86 88 71 63 75 79 94 94 88 100 101 95 104 109 112 112 113 119 126 133 135 138 144 150 138 135 132 128 125 118 112 111 105 90 79 68 66 62
274 259 240 262 293 348 337 338 311 9 356 350 332 345 349 20 4 348 356 8 345 353 48 338 322 315 308 192 302 327 319 208 204 79 279 330 92 111 256 73 59 68 185 110 84 67 75 58 78 102 107 105 68 60 45 42 84 108 104 111 123 123 124 122 120 120 118 116 115 118 120 114 114 109 107 106 106 103 98 90 88 90 90 83 76 73 68
303 322 322 322 4 315 329 3 321 23 343 353 333 356 354 351 338 340 352 354 333 330 320 268 285 307 324 352 286 117 100 306 359 35 16 6 39 5 23 52 31 353 68 93 89 88 84 87 95 94 88 78 63 57 90 104 97 93 94 106 107 106 111 105 103 108 113 121 126 127 120 122 113 107 102 93 85 79 80 80 79 70 70 75 77 73 61
331 329 333 3 347 336 27 359 344 357 16 339 339 332 318 329 320 305 292 281 304 302 310 335 321 331 351 18 343 360 336 324 297 30 359 30 33 39 28 95 57 27 56 75 79 78 73 81 79 74 78 75 70 68 56 72 63 74 112 110 101 96 94 96 96 92 93 100 105 112 116 115 108 104 95 89 81 75 74 73 69 69 67 66 63 62 61
284 323 324 340 356 314 344 352 343 332 315 298 295 275 282 285 284 287 287 279 286 316 312 321 345 23 304 5 320 210 256 327 23 9 327 57 24 43 35 59 29 349 61 75 80 102 99 89 82 76 72 70 63 48 31 92 120 145 102 94 93 90 92 91 91 92 94 98 99 100 99 100 100 100 97 88 80 72 66 63 60 52 52 53 49 46 53
350 280 326 6 335 320 345 349 314 303 297 303 320 328 301 287 286 297 355 353 347 321 335 49 201 262 188 91 317 348 12 23 33 38 8 19 297 10 48 64 65 50 29 63 86 93 87 81 85 69 42 38 47 61 14 73 78 79 85 87 87 92 90 86 85 83 84 85 89 93 99 99 97 90 88 88 89 79 72 68 65 62 60 55 56 49 44
289 8 351 320 342 335 310 319 254 256 287 253 242 242 306 38 341 15 3 320 344 354 357 325 49 142 224 115 247 270 43 357 36 37 43 32 35 9 5 59 61 70 40 49 78 75 78 66 78 96 92 88 83 60 61 62 71 77 79 83 86 88 90 87 84 82 80 79 81 84 84 85 88 88 86 87 88 88 84 82 75 66 57 56 55 55 56
360 18 346 346 16 32 345 355 22 34 9 22 21 16 2 4 6 6 3 336 352 3 348 320 265 264 29 28 75 40 43 9 35 21 43 47 24 17 38 63 49 86 106 90 99 96 86 91 109 92 77 65 45 66 85 82 77 80 82 83 83 77 75 79 83 82 78 75 77 77 77 78 79 81 84 88 94 97 84 76 76 79 73 61 54 58 56
18 354 359 13 9 10 357 15 12 12 14 16 14 13 355 5 353 355 358 324 343 336 326 341 11 61 75 45 13 41 10 314 42 41 30 44 25 33 24 58 58 59 98 109 105 105 102 98 75 83 73 55 35 31 58 74 75 77 87 92 92 89 79 73 74 74 77 74 74 75 77 79 80 88 93 79 73 73 82 76 69 79 82 83 76 66 78
357 353 357 23 17 15 9 5 12 13 11 11 11 9 360 6 359 353 353 6 22 48 57 15 10 56 50 55 35 55 109 47 46 27 51 37 1 43 49 52 75 66 55 75 76 69 51 48 69 68 64 56 32 25 47 63 61 61 61 70 72 77 90 84 75 77 80 77 73 76 80 83 97 103 92 71 61 60 66 72 68 61 57 50 53 41 13